Weather History for Medford, WI

Change the Weather History Date:

Saturday, October 26, 2013

  Actual Average Record
Temperature  
Mean Temperature 40 °F -  
Max Temperature 48 °F 50 °F 77 °F (1989)
Min Temperature 33 °F 32 °F 10 °F (1962)
Degree Days  
Heating Degree Days 24    
Moisture  
Dew Point 32 °F    
Average Humidity 70    
Maximum Humidity 93    
Minimum Humidity 59    
Precipitation  
Precipitation 0.02 in - - ()
Sea Level Pressure  
Sea Level Pressure 29.87 in    
Wind  
Wind Speed 11 mph (NW)    
Max Wind Speed 20 mph    
Max Gust Speed 30 mph    
Visibility 10 miles    
Events Rain    
Averages and records for this station are not official NWS values.
T = Trace of Precipitation, MM = Missing Value Source: NWS Daily Summary

Daily Weather History Graph

Daily Weather History Graph

Search for Another Location

Airport:

Trip Planner

Search our weather history database for the weather conditions in past years. The results will help you decide how hot, cold, wet, or windy it might be!

Date:

Astronomy

Oct. 26, 2013 Rise Set
Actual Time 7:32 AM CDT 5:57 PM CDT
Civil Twilight 7:01 AM CDT 6:27 PM CDT
Nautical Twilight 6:27 AM CDT 7:02 PM CDT
Astronomical Twilight 5:53 AM CDT 7:36 PM CDT
Moon No Moon Rise 1:50 PM CDT (10/26)
Length of Visible Light 11h 26m
Length of Day
10h 25m
Waning Gibbous, 53% of the Moon is Illuminated
Oct 26
Waning Gibbous
Oct 26
Last Quarter
Nov 3
New
Nov 9
First Quarter
Nov 17
Full

Hourly Weather History & Observations

Time (CDT) Temp. Windchill Dew Point Humidity Pressure Visibility Wind Dir Wind Speed Gust Speed Precip Events Conditions
12:15 AM 48.7 °F - 36.1 °F 62% 29.68 in 10.0 mi WSW 12.7 mph 21.9 mph N/A   Mostly Cloudy
12:35 AM 48.4 °F - 36.5 °F 64% 29.68 in 10.0 mi WSW 10.4 mph 19.6 mph N/A   Mostly Cloudy
12:55 AM 48.2 °F - 36.5 °F 64% 29.68 in 10.0 mi WSW 12.7 mph - N/A   Mostly Cloudy
1:15 AM 48.2 °F - 36.7 °F 64% 29.68 in 10.0 mi WSW 12.7 mph 16.1 mph N/A   Overcast
1:35 AM 47.7 °F - 36.7 °F 66% 29.68 in 10.0 mi West 9.2 mph - N/A   Mostly Cloudy
1:55 AM 47.5 °F - 36.9 °F 67% 29.67 in 10.0 mi West 10.4 mph 16.1 mph N/A   Mostly Cloudy
2:15 AM 47.3 °F - 37.0 °F 68% 29.67 in 10.0 mi West 9.2 mph - N/A   Overcast
2:35 AM 46.4 °F 41.9 °F 37.0 °F 70% 29.67 in 10.0 mi West 9.2 mph - N/A   Mostly Cloudy
2:55 AM 45.7 °F 40.2 °F 37.0 °F 72% 29.68 in 10.0 mi West 11.5 mph 17.3 mph N/A   Scattered Clouds
3:15 AM 45.0 °F 39.7 °F 37.0 °F 74% 29.68 in 10.0 mi WNW 10.4 mph 17.3 mph N/A   Clear
3:35 AM 44.2 °F 38.8 °F 35.8 °F 72% 29.68 in 10.0 mi WNW 10.4 mph - N/A   Scattered Clouds
3:55 AM 44.1 °F 39.5 °F 32.7 °F 64% 29.68 in 10.0 mi WNW 8.1 mph - N/A   Mostly Cloudy
4:15 AM 43.0 °F 38.2 °F 32.2 °F 66% 29.69 in 10.0 mi WNW 8.1 mph - N/A   Scattered Clouds
4:35 AM 43.3 °F 37.2 °F 32.0 °F 64% 29.70 in 10.0 mi NW 11.5 mph 19.6 mph N/A   Scattered Clouds
4:55 AM 42.1 °F 36.6 °F 32.0 °F 67% 29.71 in 10.0 mi NW 9.2 mph - N/A   Scattered Clouds
5:15 AM 41.4 °F 35.2 °F 32.0 °F 69% 29.72 in 10.0 mi WNW 10.4 mph 16.1 mph N/A   Clear
5:35 AM 41.2 °F 34.5 °F 30.9 °F 67% 29.73 in 10.0 mi NW 11.5 mph 18.4 mph N/A   Clear
5:55 AM 40.1 °F 31.0 °F 30.6 °F 69% 29.74 in 10.0 mi NNW 18.4 mph 25.3 mph N/A   Clear
6:15 AM 39.6 °F 32.5 °F 31.1 °F 72% 29.75 in 10.0 mi NW 11.5 mph - N/A   Mostly Cloudy
6:35 AM 38.5 °F 31.1 °F 30.7 °F 74% 29.76 in 10.0 mi NW 11.5 mph 17.3 mph N/A   Mostly Cloudy
6:55 AM 38.7 °F 31.4 °F 30.9 °F 74% 29.77 in 10.0 mi NW 11.5 mph 17.3 mph N/A   Mostly Cloudy
7:15 AM 38.3 °F 32.5 °F 31.1 °F 75% 29.78 in 10.0 mi NW 8.1 mph - N/A   Overcast
7:35 AM 39.2 °F 32.5 °F 31.5 °F 74% 29.79 in 10.0 mi NW 10.4 mph - N/A   Overcast
7:55 AM 37.9 °F 30.5 °F 32.9 °F 82% 29.80 in 10.0 mi NW 11.5 mph - N/A   Light Drizzle
8:15 AM 37.9 °F 30.0 °F 33.3 °F 83% 29.81 in 10.0 mi NW 12.7 mph 18.4 mph N/A   Overcast
8:35 AM 38.3 °F 29.7 °F 32.9 °F 81% 29.82 in 10.0 mi NW 15.0 mph 21.9 mph N/A   Mostly Cloudy
8:55 AM 39.0 °F 31.0 °F 32.0 °F 76% 29.83 in 10.0 mi NW 13.8 mph 20.7 mph N/A   Scattered Clouds
9:15 AM 39.4 °F 30.7 °F 31.6 °F 74% 29.84 in 10.0 mi NW 16.1 mph 21.9 mph N/A   Scattered Clouds
9:35 AM 40.1 °F 31.6 °F 30.7 °F 69% 29.85 in 10.0 mi NW 16.1 mph 25.3 mph N/A   Mostly Cloudy
9:55 AM 33.8 °F 24.8 °F 32.0 °F 93% 29.86 in 1.0 mi NNW 12.7 mph 28.8 mph 0.02 in Rain Light Rain
10:15 AM 37.2 °F 29.6 °F 33.4 °F 86% 29.87 in 10.0 mi NNW 11.5 mph 18.4 mph N/A   Scattered Clouds
10:35 AM 40.1 °F 31.3 °F 34.2 °F 79% 29.87 in 10.0 mi NNW 17.3 mph - N/A   Scattered Clouds
10:55 AM 40.3 °F 31.9 °F 32.5 °F 74% 29.89 in 10.0 mi NW 16.1 mph 23.0 mph N/A   Overcast
11:15 AM 40.8 °F 33.3 °F 32.0 °F 71% 29.89 in 10.0 mi NNW 13.8 mph 20.7 mph N/A   Mostly Cloudy
11:35 AM 40.6 °F 31.7 °F 31.8 °F 71% 29.90 in 10.0 mi NW 18.4 mph 25.3 mph N/A   Mostly Cloudy
12:15 PM 41.7 °F 33.7 °F 31.8 °F 68% 29.92 in 10.0 mi NW 16.1 mph 26.5 mph N/A   Overcast
12:35 PM 40.8 °F 32.9 °F 32.0 °F 71% 29.92 in 7.0 mi NW 15.0 mph 29.9 mph N/A Rain Light Rain
12:55 PM 42.4 °F 35.3 °F 31.3 °F 65% 29.92 in 10.0 mi NW 13.8 mph 24.2 mph N/A   Mostly Cloudy
1:15 PM 43.0 °F 35.7 °F 31.8 °F 65% 29.93 in 10.0 mi NW 15.0 mph 24.2 mph N/A   Mostly Cloudy
1:35 PM 43.0 °F 35.7 °F 30.0 °F 60% 29.93 in 10.0 mi NNW 15.0 mph 25.3 mph N/A   Mostly Cloudy
1:55 PM 42.4 °F 34.4 °F 29.7 °F 61% 29.94 in 10.0 mi NW 17.3 mph 21.9 mph N/A   Overcast
2:15 PM 43.2 °F 35.3 °F 31.5 °F 63% 29.95 in 10.0 mi NNW 17.3 mph 25.3 mph N/A   Overcast
2:35 PM 43.0 °F 36.8 °F 29.7 °F 59% 29.95 in 10.0 mi NNW 11.5 mph 17.3 mph N/A   Mostly Cloudy
2:55 PM 42.1 °F 33.3 °F 28.6 °F 59% 29.95 in 10.0 mi NW 19.6 mph 27.6 mph N/A   Mostly Cloudy
3:15 PM 41.2 °F 34.1 °F 31.5 °F 68% 29.96 in 10.0 mi North 12.7 mph 19.6 mph N/A   Overcast
3:35 PM 41.0 °F 33.5 °F 30.4 °F 66% 29.97 in 10.0 mi NW 13.8 mph - N/A   Overcast
3:55 PM 41.2 °F 33.4 °F 28.8 °F 61% 29.98 in 10.0 mi NNW 15.0 mph 23.0 mph N/A   Overcast
4:15 PM 42.8 °F 37.5 °F 29.5 °F 59% 29.97 in 10.0 mi NW 9.2 mph - N/A   Overcast
4:35 PM 41.2 °F 33.7 °F 29.3 °F 63% 29.98 in 10.0 mi NNW 13.8 mph 17.3 mph N/A   Overcast
4:55 PM 41.0 °F 34.3 °F 28.9 °F 62% 29.98 in 10.0 mi NW 11.5 mph 21.9 mph N/A   Overcast
5:15 PM 40.3 °F 32.2 °F 28.9 °F 64% 29.98 in 10.0 mi NW 15.0 mph 19.6 mph N/A   Overcast
5:35 PM 39.7 °F 32.7 °F 28.2 °F 63% 29.99 in 10.0 mi NW 11.5 mph 17.3 mph N/A   Overcast
5:55 PM 39.6 °F 34.0 °F 28.8 °F 65% 30.00 in 10.0 mi NW 8.1 mph - N/A   Overcast
6:15 PM 39.6 °F 36.3 °F 29.1 °F 66% 30.00 in 10.0 mi WNW 4.6 mph - N/A   Overcast
6:35 PM 39.4 °F 35.2 °F 29.3 °F 67% 30.01 in 10.0 mi WNW 5.8 mph - N/A   Overcast
6:55 PM 38.8 °F 35.4 °F 29.3 °F 69% 30.01 in 10.0 mi WNW 4.6 mph - N/A   Overcast
7:15 PM 38.5 °F 36.1 °F 29.7 °F 71% 30.02 in 10.0 mi NW 3.5 mph - N/A   Overcast
7:35 PM 38.3 °F - 30.2 °F 73% 30.02 in 10.0 mi Calm Calm - N/A   Overcast
7:55 PM 37.9 °F 35.5 °F 30.2 °F 74% 30.02 in 10.0 mi NW 3.5 mph - N/A   Overcast
8:15 PM 37.8 °F - 29.7 °F 73% 30.02 in 10.0 mi Calm Calm - N/A   Overcast
8:35 PM 37.4 °F - 30.0 °F 75% 30.01 in 10.0 mi Calm Calm - N/A   Overcast
8:55 PM 38.3 °F 35.9 °F 30.0 °F 72% 30.01 in 10.0 mi West 3.5 mph - N/A   Overcast
9:15 PM 37.9 °F 34.4 °F 30.2 °F 74% 30.01 in 10.0 mi West 4.6 mph - N/A   Overcast
9:35 PM 37.8 °F 34.2 °F 30.4 °F 75% 30.01 in 10.0 mi WNW 4.6 mph - N/A   Overcast
9:55 PM 37.4 °F 34.9 °F 30.6 °F 76% 30.02 in 10.0 mi WNW 3.5 mph - N/A   Overcast
10:15 PM 36.9 °F - 30.9 °F 79% 30.01 in 10.0 mi Calm Calm - N/A   Overcast
10:35 PM 37.4 °F - 30.6 °F 76% 30.01 in 10.0 mi Calm Calm - N/A   Overcast
10:55 PM 37.4 °F - 30.7 °F 77% 30.01 in 10.0 mi Calm Calm - N/A   Overcast
11:15 PM 37.4 °F 33.8 °F 30.9 °F 77% 30.00 in 10.0 mi WSW 4.6 mph - N/A   Overcast
11:35 PM 37.4 °F 33.8 °F 31.5 °F 79% 30.00 in 10.0 mi West 4.6 mph - N/A   Overcast
11:55 PM 36.9 °F - 31.5 °F 81% 29.99 in 10.0 mi Calm Calm - N/A   Overcast